Rochester, NY

10:08 PM EST on February 18, 2018 (GMT -0500)
Greater Rochester International

Weather History for KROC - October, 2012

Change the Weather History Date:

Thursday, October 18, 2012

  Actual Average Record
Temperature  
Mean Temperature 59 °F 50 °F  
Max Temperature 68 °F 59 °F 83 °F (1947)
Min Temperature 49 °F 41 °F 23 °F (1972)
Degree Days  
Heating Degree Days 6 15  
Month to date heating degree days 218 225  
Since 1 July heating degree days 370 406  
Cooling Degree Days 0 0  
Month to date cooling degree days 2 0  
Year to date cooling degree days 799 534  
Growing Degree Days 8 (Base 50)    
Moisture  
Dew Point 44 °F    
Average Humidity 60    
Maximum Humidity 77    
Minimum Humidity 42    
Precipitation  
Precipitation 0.27 in 0.08 in 1.16 in (1937)
Month to date precipitation 1.83 1.61  
Year to date precipitation 26.77 27.59  
Snow  
Snow 0.00 in 0.00 in 0.10 in (1972)
Month to date snowfall 0.0 0.0  
Since 1 July snowfall 0.0 0.0  
Since 1 September snowfall 0.0 0.0  
Snow Depth 0.00 in    
Sea Level Pressure  
Sea Level Pressure 29.79 in    
Wind  
Wind Speed 11 mph (SSE)    
Max Wind Speed 26 mph    
Max Gust Speed 38 mph    
Visibility 9 miles    
Events Rain    
T = Trace of Precipitation, MM = Missing Value Source: NWS Daily Summary

Daily Weather History Graph

Daily Weather History Graph

Search for Another Location

Airport or City:

Trip Planner

Search our weather history database for the weather conditions in past years. The results will help you decide how hot, cold, wet, or windy it might be!

Date:

Astronomy

Oct. 18, 2012 Rise Set
Actual Time 7:28 AM EDT 6:22 PM EDT
Civil Twilight 6:59 AM EDT 6:51 PM EDT
Nautical Twilight 6:26 AM EDT 7:24 PM EDT
Astronomical Twilight 5:53 AM EDT 7:56 PM EDT
Moon 11:13 AM EDT (10/18) 8:48 PM EDT (10/18)
Length of Visible Light 11h 51m
Length of Day
10h 53m
Waxing Crescent, 14% of the Moon is Illuminated
Oct 18
Waxing Crescent
Oct 21
First Quarter
Oct 29
Full
Nov 6
Last Quarter
Nov 13
New

Hourly Weather History & Observations

Time (EDT) Temp. Dew Point Humidity Pressure Visibility Wind Dir Wind Speed Gust Speed Precip Events Conditions
12:54 AM 57.0 °F 41.0 °F 55% 29.81 in 10.0 mi SSE 8.1 mph - N/A   Mostly Cloudy
1:54 AM 57.0 °F 39.9 °F 53% 29.81 in 10.0 mi SSE 6.9 mph - N/A   Scattered Clouds
2:54 AM 55.0 °F 41.0 °F 59% 29.79 in 10.0 mi SSE 9.2 mph - N/A   Partly Cloudy
3:54 AM 52.0 °F 41.0 °F 66% 29.78 in 10.0 mi SSE 9.2 mph - N/A   Partly Cloudy
4:54 AM 51.1 °F 42.1 °F 71% 29.77 in 10.0 mi SE 5.8 mph - N/A   Clear
5:54 AM 50.0 °F 42.1 °F 74% 29.78 in 10.0 mi ESE 3.5 mph - N/A   Partly Cloudy
6:54 AM 50.0 °F 43.0 °F 77% 29.78 in 10.0 mi SE 9.2 mph - N/A   Partly Cloudy
7:54 AM 53.1 °F 45.0 °F 74% 29.78 in 10.0 mi SE 9.2 mph - N/A   Scattered Clouds
8:54 AM 55.9 °F 46.0 °F 69% 29.77 in 10.0 mi SE 12.7 mph - N/A   Partly Cloudy
9:54 AM 60.1 °F 46.0 °F 60% 29.76 in 10.0 mi SSE 13.8 mph 29.9 mph N/A   Scattered Clouds
10:54 AM 64.0 °F 45.0 °F 50% 29.75 in 10.0 mi SSE 18.4 mph 26.5 mph N/A   Mostly Cloudy
11:54 AM 66.0 °F 44.1 °F 45% 29.72 in 10.0 mi South 20.7 mph 38.0 mph N/A   Mostly Cloudy
12:54 PM 66.9 °F 43.0 °F 42% 29.72 in 10.0 mi South 23.0 mph 32.2 mph N/A   Mostly Cloudy
1:54 PM 64.9 °F 44.1 °F 47% 29.73 in 10.0 mi South 16.1 mph 26.5 mph N/A   Mostly Cloudy
2:54 PM 66.0 °F 45.0 °F 47% 29.73 in 10.0 mi SSE 18.4 mph 26.5 mph N/A   Mostly Cloudy
3:54 PM 64.9 °F 44.1 °F 47% 29.74 in 10.0 mi SSE 12.7 mph 21.9 mph N/A   Overcast
4:54 PM 66.0 °F 44.1 °F 45% 29.73 in 10.0 mi SE 16.1 mph 21.9 mph N/A   Mostly Cloudy
5:54 PM 66.0 °F 43.0 °F 43% 29.75 in 10.0 mi SSE 11.5 mph - N/A   Mostly Cloudy
6:54 PM 59.0 °F 46.9 °F 64% 29.80 in 10.0 mi WNW 9.2 mph - N/A   Overcast
7:54 PM 57.0 °F 46.0 °F 67% 29.83 in 10.0 mi NW 3.5 mph - N/A   Overcast
8:54 PM 57.0 °F 46.0 °F 67% 29.83 in 10.0 mi Calm Calm - N/A   Overcast
9:54 PM 55.0 °F 45.0 °F 69% 29.85 in 10.0 mi WNW 10.4 mph - N/A   Overcast
10:54 PM 53.1 °F 46.0 °F 77% 29.87 in 10.0 mi NNW 3.5 mph - 0.00 in   Overcast
11:23 PM 51.8 °F 46.4 °F 82% 29.88 in 3.0 mi West 4.6 mph - N/A Rain Rain
11:41 PM 51.8 °F 48.2 °F 88% 29.88 in 5.0 mi Calm Calm - 0.10 in Rain Rain
11:54 PM 50.0 °F 48.0 °F 93% 29.90 in 5.0 mi SSW 4.6 mph - 0.13 in Rain Rain